Angoon, AK

3:31 PM AKDT on October 22, 2019 (GMT -0800)
Angoon

Weather History for PAGN - May, 2019

Change the Weather History Date:

Tuesday, May 28, 2019

  Actual Average (PASI) Record (PASI)
Temperature  
Mean Temperature 56 °F 50 °F  
Max Temperature 63 °F 55 °F 77 °F (1964)
Min Temperature 51 °F 45 °F 35 °F (1956)
Degree Days  
Heating Degree Days 10 15  
Month to date heating degree days 491  
Growing Degree Days 6 (Base 50)    
Moisture  
Dew Point 49 °F    
Average Humidity 84    
Maximum Humidity 96    
Minimum Humidity 64    
Precipitation  
Precipitation 0.02 in 0.13 in 1.03 in (2018)
Month to date precipitation 3.86  
Year to date precipitation 29.23  
Sea Level Pressure  
Sea Level Pressure 30.09 in    
Wind  
Wind Speed 2 mph (SSE)    
Max Wind Speed 7 mph    
Max Gust Speed -    
Visibility 10 miles    
Events      
T = Trace of Precipitation, MM = Missing Value Source: NWS Daily Summary

Daily Weather History Graph

Daily Weather History Graph

Search for Another Location

Airport or City:

Astronomy

May. 28, 2019 Rise Set
Actual Time 4:14 AM AKDT 9:37 PM AKDT
Civil Twilight 3:12 AM AKDT 10:40 PM AKDT
Nautical Twilight 1:28 AM AKDT 12:23 AM AKDT
Astronomical Twilight Sun does not rise Sun does not rise
Moon 3:06 AM AKDT (5/28) 2:23 PM AKDT (5/28)
Length of Visible Light 19h 27m
Length of Day
17h 23m
Waning Crescent, 30% of the Moon is Illuminated
May 28
Waning Crescent
Jun 3
New
Jun 9
First Quarter
Jun 17
Full
Jun 25
Last Quarter

Hourly Weather History & Observations

Time (AKDT) Temp. Dew Point Humidity Pressure Visibility Wind Dir Wind Speed Gust Speed Precip Events Conditions
12:56 AM 53.1 °F 48.0 °F 83% 30.03 in 10.0 mi Variable 3.5 mph - N/A   Overcast
1:56 AM 51.1 °F 50.0 °F 96% 30.04 in 10.0 mi Variable 3.5 mph - 0.02 in   Overcast
2:56 AM 51.1 °F 48.9 °F 92% 30.05 in 10.0 mi Calm Calm - N/A   Overcast
3:52 AM 51.8 °F 50.0 °F 94% 30.08 in 10.0 mi Variable 3.5 mph - N/A   Overcast
3:56 AM 51.1 °F 50.0 °F 96% 30.05 in 10.0 mi Calm Calm - N/A   Overcast
4:39 AM 51.8 °F 48.2 °F 88% 30.09 in 5.0 mi Calm Calm - N/A   Overcast
4:53 AM 51.8 °F 50.0 °F 94% 30.09 in 10.0 mi Calm Calm - N/A   Overcast
4:56 AM 51.1 °F 50.0 °F 96% 30.06 in 10.0 mi Calm Calm - N/A   Overcast
5:56 AM 51.1 °F 50.0 °F 96% 30.07 in 10.0 mi Calm Calm - N/A   Overcast
6:56 AM 51.1 °F 50.0 °F 96% 30.09 in 10.0 mi SE 3.5 mph - N/A   Overcast
7:14 AM 51.8 °F 50.0 °F 94% 30.12 in 10.0 mi SSE 3.5 mph - N/A   Overcast
7:23 AM 51.8 °F 50.0 °F 94% 30.12 in 10.0 mi SSE 6.9 mph - N/A   Overcast
7:56 AM 52.0 °F 50.0 °F 93% 30.09 in 10.0 mi SSE 5.8 mph - N/A   Overcast
8:04 AM 53.6 °F 50.0 °F 88% 30.12 in 10.0 mi SE 3.5 mph - N/A   Mostly Cloudy
8:56 AM 57.0 °F 51.1 °F 81% 30.09 in 10.0 mi Variable 3.5 mph - N/A   Clear
9:56 AM 59.0 °F 50.0 °F 72% 30.08 in 10.0 mi Calm Calm - N/A   Partly Cloudy
11:56 AM 57.9 °F 50.0 °F 75% 30.09 in 10.0 mi SSE 4.6 mph - N/A   Overcast
12:56 PM 59.0 °F 50.0 °F 72% 30.10 in 10.0 mi Variable 3.5 mph - N/A   Overcast
3:56 PM 60.1 °F 48.0 °F 64% 30.09 in 10.0 mi Variable 3.5 mph - N/A   Clear
4:56 PM 59.0 °F 48.9 °F 69% 30.09 in 10.0 mi Calm Calm - N/A   Clear
5:56 PM 60.1 °F 48.0 °F 64% 30.08 in 10.0 mi Calm Calm - N/A   Clear
6:56 PM 57.0 °F 48.9 °F 74% 30.08 in 10.0 mi Calm Calm - N/A   Overcast
8:56 PM 54.0 °F 48.0 °F 80% 30.10 in 10.0 mi Variable 3.5 mph - N/A   Clear
9:56 PM 52.0 °F 48.0 °F 86% 30.11 in 10.0 mi Calm Calm - N/A   Partly Cloudy
10:56 PM 52.0 °F 46.0 °F 80% 30.12 in 10.0 mi Calm Calm - N/A   Clear
11:56 PM 51.1 °F 44.1 °F 77% 30.13 in 10.0 mi Calm Calm - N/A   Clear